ASTRA 5B

Last updated on Tue Oct 28 2025 00:02:49 GMT+0000 (Coordinated Universal Time)

1 39617U 14011B 25300.47769961 .00000148 00000+0 00000+0 0 9993 2 39617 0.0548 323.2501 0004102 264.1006 4.2254 1.00270960 42331
UTC large
Height (km)
Speed (km/s)
/
Latitude / Longitude
Inclination (degrees)
Orbital Period (minutes)
Azimuth
Elevation
Range (km)
Doppler Factor

Next 0 passes for location: London (51.5072 / 0.1276)

Sorry there are no passes over London.